Total_Precipitation_Accumulation
0.10 0.12 0.12 0.12 0.10 0.17 0.26 0.34 0.37 0.53 0.58 0.46 0.34 0.26 0.26 0.33 0.32 0.35 0.28 0.20 0.17 0.20 0.37 0.47 0.43 0.41 0.38 0.35 0.34 0.32 0.30 0.27 0.27 0.28 0.36 0.41 0.40 0.37 0.35 0.34 0.31 0.27 0.25
0.21 0.24 0.24 0.28 0.27 0.33 0.37 0.47 0.61 0.81 0.78 0.76 0.57 0.42 0.37 0.34 0.31 0.37 0.32 0.28 0.20 0.16 0.20 0.32 0.38 0.38 0.36 0.35 0.30 0.25 0.23 0.23 0.21 0.17 0.18 0.26 0.30 0.30 0.28 0.29 0.28 0.24 0.21
0.38 0.40 0.36 0.38 0.52 0.64 0.69 0.71 0.87 1.04 0.87 0.91 0.72 0.64 0.53 0.45 0.36 0.33 0.32 0.28 0.24 0.19 0.15 0.18 0.25 0.29 0.33 0.36 0.34 0.29 0.20 0.16 0.15 0.14 0.12 0.14 0.19 0.21 0.18 0.19 0.20 0.19 0.18
0.51 0.62 0.54 0.55 0.91 1.00 1.01 1.11 1.25 1.24 1.13 1.11 0.95 0.77 0.59 0.51 0.41 0.33 0.27 0.26 0.24 0.16 0.13 0.14 0.17 0.20 0.27 0.34 0.41 0.41 0.30 0.21 0.16 0.16 0.16 0.15 0.21 0.22 0.16 0.14 0.13 0.12 0.11
0.66 0.84 0.77 0.92 1.23 1.26 1.22 1.24 1.47 1.42 1.25 1.22 1.14 0.88 0.59 0.47 0.34 0.29 0.25 0.20 0.20 0.19 0.15 0.15 0.13 0.15 0.25 0.42 0.48 0.46 0.40 0.31 0.22 0.20 0.21 0.23 0.29 0.26 0.17 0.12 0.13 0.12 0.10
0.81 1.09 1.00 1.08 1.31 1.40 1.36 1.35 1.32 1.36 1.21 1.22 1.17 0.90 0.59 0.39 0.33 0.27 0.22 0.17 0.13 0.11 0.11 0.12 0.16 0.14 0.22 0.40 0.44 0.49 0.50 0.41 0.30 0.25 0.28 0.31 0.37 0.36 0.20 0.13 0.13 0.13 0.13
0.82 1.13 1.10 1.20 1.31 1.27 1.25 1.34 1.34 1.23 1.01 1.18 1.21 0.87 0.52 0.38 0.34 0.22 0.18 0.14 0.13 0.09 0.08 0.11 0.17 0.21 0.26 0.30 0.40 0.43 0.46 0.45 0.37 0.32 0.34 0.37 0.46 0.49 0.30 0.21 0.20 0.15 0.17
1.01 1.10 1.15 1.17 1.23 1.26 1.15 1.11 1.19 1.08 0.89 1.05 1.13 1.05 0.58 0.38 0.31 0.24 0.24 0.28 0.25 0.20 0.17 0.18 0.19 0.27 0.31 0.37 0.44 0.30 0.28 0.42 0.48 0.48 0.45 0.38 0.40 0.49 0.42 0.38 0.36 0.33 0.36
1.35 1.33 1.25 1.14 1.02 1.01 0.92 0.93 1.03 1.04 0.92 0.92 1.08 1.20 0.87 0.57 0.49 0.35 0.35 0.35 0.35 0.34 0.31 0.31 0.29 0.34 0.35 0.40 0.51 0.54 0.32 0.35 0.47 0.62 0.64 0.50 0.38 0.42 0.49 0.51 0.53 0.51 0.53
1.19 1.05 0.94 0.91 0.85 0.84 0.75 0.73 0.80 0.81 0.79 0.77 0.85 0.97 1.05 1.04 0.91 0.49 0.31 0.27 0.32 0.37 0.40 0.35 0.29 0.32 0.38 0.45 0.58 0.79 0.62 0.43 0.38 0.50 0.61 0.56 0.47 0.42 0.44 0.52 0.66 0.66 0.55
0.85 0.73 0.66 0.65 0.62 0.62 0.56 0.55 0.55 0.55 0.58 0.61 0.70 0.81 0.92 1.01 1.04 0.88 0.52 0.46 0.48 0.45 0.45 0.38 0.35 0.37 0.40 0.50 0.63 0.66 0.74 0.64 0.54 0.42 0.41 0.48 0.55 0.53 0.56 0.74 0.94 1.04 0.93
0.50 0.40 0.37 0.40 0.46 0.52 0.48 0.45 0.44 0.45 0.50 0.58 0.65 0.71 0.79 0.79 0.85 0.94 0.74 0.61 0.54 0.47 0.49 0.52 0.50 0.52 0.48 0.51 0.55 0.67 0.64 0.50 0.44 0.41 0.38 0.40 0.47 0.53 0.61 0.80 1.09 1.30 1.37
0.37 0.31 0.28 0.29 0.36 0.43 0.40 0.36 0.38 0.45 0.53 0.59 0.63 0.69 0.76 0.77 0.82 0.94 0.90 0.81 0.72 0.68 0.68 0.67 0.54 0.42 0.33 0.37 0.41 0.40 0.31 0.25 0.23 0.25 0.26 0.29 0.35 0.45 0.61 0.78 0.97 1.15 1.29
0.36 0.35 0.31 0.32 0.33 0.37 0.35 0.36 0.35 0.41 0.49 0.54 0.53 0.65 0.76 0.81 0.89 1.02 1.05 0.99 0.87 0.81 0.76 0.69 0.54 0.40 0.33 0.33 0.26 0.19 0.18 0.14 0.09 0.09 0.12 0.13 0.19 0.29 0.47 0.63 0.78 0.91 1.01
0.33 0.37 0.36 0.36 0.40 0.44 0.46 0.51 0.53 0.57 0.69 0.74 0.76 0.82 0.89 0.86 0.85 0.90 0.95 0.95 0.93 0.81 0.70 0.63 0.52 0.42 0.36 0.34 0.26 0.23 0.28 0.15 0.05 0.04 0.05 0.07 0.12 0.21 0.27 0.32 0.45 0.59 0.71
0.30 0.35 0.41 0.42 0.43 0.43 0.46 0.56 0.74 0.88 0.94 0.96 0.97 1.01 1.03 0.98 0.94 0.96 0.92 0.93 0.99 0.90 0.68 0.54 0.49 0.43 0.38 0.30 0.26 0.27 0.22 0.12 0.06 0.04 0.03 0.04 0.07 0.11 0.11 0.15 0.23 0.32 0.44
0.32 0.35 0.39 0.42 0.43 0.44 0.45 0.51 0.64 0.81 0.89 0.90 0.91 0.96 0.93 0.88 0.85 0.81 0.81 0.86 0.92 0.89 0.70 0.53 0.51 0.47 0.44 0.43 0.39 0.33 0.24 0.17 0.12 0.07 0.04 0.03 0.04 0.05 0.07 0.10 0.14 0.19 0.26
0.33 0.33 0.32 0.33 0.35 0.38 0.43 0.51 0.61 0.69 0.74 0.74 0.71 0.68 0.66 0.62 0.60 0.59 0.62 0.63 0.65 0.74 0.71 0.57 0.55 0.51 0.48 0.49 0.51 0.46 0.34 0.22 0.18 0.16 0.10 0.07 0.05 0.05 0.06 0.08 0.13 0.18 0.24
0.25 0.26 0.26 0.29 0.36 0.47 0.55 0.60 0.63 0.65 0.64 0.64 0.66 0.66 0.57 0.50 0.48 0.46 0.47 0.46 0.45 0.53 0.57 0.54 0.52 0.50 0.45 0.44 0.46 0.47 0.46 0.36 0.26 0.20 0.16 0.13 0.10 0.08 0.08 0.08 0.12 0.20 0.27
0.17 0.21 0.26 0.32 0.40 0.48 0.56 0.59 0.59 0.56 0.52 0.47 0.48 0.50 0.49 0.44 0.40 0.38 0.37 0.36 0.35 0.42 0.48 0.50 0.49 0.49 0.47 0.43 0.41 0.46 0.56 0.51 0.43 0.34 0.28 0.22 0.22 0.18 0.14 0.12 0.12 0.16 0.26
0.17 0.20 0.24 0.30 0.34 0.37 0.40 0.36 0.32 0.31 0.29 0.25 0.25 0.27 0.30 0.33 0.35 0.32 0.30 0.33 0.35 0.36 0.37 0.37 0.37 0.40 0.46 0.49 0.46 0.47 0.58 0.63 0.59 0.48 0.40 0.32 0.29 0.25 0.22 0.17 0.14 0.14 0.21
0.13 0.17 0.21 0.26 0.26 0.25 0.30 0.20 0.11 0.11 0.13 0.15 0.18 0.20 0.23 0.23 0.26 0.28 0.28 0.28 0.31 0.31 0.30 0.28 0.27 0.33 0.40 0.49 0.55 0.55 0.58 0.59 0.61 0.62 0.56 0.51 0.44 0.39 0.37 0.31 0.21 0.17 0.18
0.10 0.12 0.13 0.13 0.14 0.17 0.18 0.13 0.05 0.05 0.08 0.09 0.10 0.12 0.14 0.18 0.19 0.18 0.18 0.18 0.18 0.20 0.23 0.25 0.22 0.21 0.22 0.23 0.30 0.41 0.56 0.73 0.81 0.79 0.78 0.83 0.68 0.55 0.50 0.42 0.25 0.17 0.16
0.13 0.11 0.10 0.09 0.12 0.14 0.11 0.10 0.06 0.05 0.08 0.09 0.09 0.07 0.07 0.07 0.09 0.10 0.11 0.10 0.09 0.09 0.12 0.15 0.15 0.13 0.11 0.11 0.14 0.18 0.27 0.47 0.71 0.84 0.85 0.89 0.86 0.79 0.68 0.57 0.40 0.25 0.19
0.17 0.14 0.12 0.11 0.13 0.15 0.12 0.08 0.06 0.07 0.10 0.11 0.10 0.08 0.05 0.03 0.04 0.05 0.08 0.09 0.08 0.07 0.07 0.07 0.07 0.06 0.04 0.04 0.04 0.05 0.06 0.11 0.25 0.40 0.59 0.79 0.84 0.83 0.80 0.70 0.53 0.34 0.22
0.22 0.18 0.15 0.15 0.17 0.20 0.19 0.13 0.08 0.10 0.14 0.13 0.13 0.09 0.05 0.02 0.02 0.03 0.07 0.07 0.07 0.06 0.05 0.04 0.03 0.04 0.03 0.02 0.01 0.01 0.02 0.03 0.06 0.11 0.15 0.31 0.52 0.66 0.80 0.80 0.71 0.58 0.43